When you browse on this site, cookies collect data to enhance your experience and personalize the content and advertising you see.
Visit our Privacy Policy to learn more. By continuing to use the site, you agree to this use of cookies and data.
  • In Slovakia
  • List of Countries
  • For 7 days
  • Water Temperature
  • Satellite Maps
  • Weather Map
  • Weather Widgets
  • user-avatar
    Login

    Hourly Weather Namibe

    Today, 27 May, Monday

    Time Temperature Precipitation Wind Pressure Humidity
    00:00 +26°C° 0 mm 2 mps 758 mmHg 51%
    01:00 +26°C° 0 mm 1 mps 758 mmHg 53%
    02:00 +26°C° 0 mm 1 mps 758 mmHg 50%
    03:00 +26°C° 0 mm 1 mps 757 mmHg 48%
    04:00 +26°C° 0 mm 1 mps 757 mmHg 46%
    05:00 +26°C° 0 mm 1 mps 758 mmHg 42%
    06:00 +26°C° 0 mm 1 mps 758 mmHg 38%
    07:00 +26°C° 0 mm 1 mps 758 mmHg 34%
    08:00 +28°C° 0 mm 1 mps 758 mmHg 30%
    09:00 +31°C° 0 mm 1 mps 758 mmHg 25%
    10:00 +33°C° 0 mm 1 mps 758 mmHg 21%
    11:00 +35°C° 0 mm 2 mps 758 mmHg 21%
    12:00 +36°C° 0 mm 3 mps 757 mmHg 20%
    13:00 +37°C° 0 mm 4 mps 757 mmHg 20%
    14:00 +36°C° 0 mm 4 mps 756 mmHg 22%
    15:00 +35°C° 0 mm 5 mps 756 mmHg 23%
    16:00 +34°C° 0 mm 5 mps 755 mmHg 25%
    17:00 +32°C° 0 mm 5 mps 755 mmHg 31%
    18:00 +30°C° 0 mm 4 mps 756 mmHg 37%
    19:00 +28°C° 0 mm 3 mps 756 mmHg 43%
    20:00 +27°C° 0 mm 2 mps 756 mmHg 43%
    21:00 +27°C° 0 mm 2 mps 757 mmHg 43%
    22:00 +27°C° 0 mm 1 mps 757 mmHg 43%
    23:00 +27°C° 0 mm 1 mps 757 mmHg 43%

    Tomorrow, 28 May, Tuesday

    Time Temperature Precipitation Wind Pressure Humidity
    00:00 +26°C° 0 mm 1 mps 757 mmHg 43%
    01:00 +26°C° 0 mm 1 mps 758 mmHg 42%
    02:00 +26°C° 0 mm 1 mps 757 mmHg 43%
    03:00 +25°C° 0 mm 1 mps 757 mmHg 44%
    04:00 +25°C° 0 mm 1 mps 757 mmHg 44%
    05:00 +25°C° 0 mm 1 mps 757 mmHg 44%
    06:00 +25°C° 0 mm 1 mps 757 mmHg 44%
    07:00 +25°C° 0 mm 1 mps 757 mmHg 44%
    08:00 +27°C° 0 mm 1 mps 757 mmHg 39%
    09:00 +29°C° 0 mm 2 mps 757 mmHg 34%
    10:00 +31°C° 0 mm 2 mps 758 mmHg 30%
    11:00 +31°C° 0 mm 3 mps 757 mmHg 30%
    12:00 +32°C° 0 mm 4 mps 757 mmHg 31%
    13:00 +33°C° 0 mm 5 mps 756 mmHg 32%
    14:00 +32°C° 0 mm 5 mps 756 mmHg 36%
    15:00 +30°C° 0 mm 5 mps 756 mmHg 40%
    16:00 +29°C° 0 mm 5 mps 755 mmHg 43%
    17:00 +28°C° 0 mm 4 mps 756 mmHg 49%
    18:00 +27°C° 0 mm 3 mps 756 mmHg 55%
    19:00 +26°C° 0 mm 2 mps 757 mmHg 60%
    20:00 +25°C° 0 mm 2 mps 757 mmHg 61%
    21:00 +25°C° 0 mm 1 mps 758 mmHg 62%
    22:00 +25°C° 0 mm 1 mps 759 mmHg 63%
    23:00 +25°C° 0 mm 1 mps 758 mmHg 62%

    Day after tomorrow, 29 May, Wednesday

    Time Temperature Precipitation Wind Pressure Humidity
    00:00 +23°C° 0 mm 0 mps 758 mmHg 62%
    01:00 +23°C° 0 mm 0 mps 758 mmHg 61%
    02:00 +24°C° 0 mm 1 mps 758 mmHg 60%
    03:00 +24°C° 0 mm 1 mps 757 mmHg 60%
    04:00 +24°C° 0 mm 1 mps 757 mmHg 59%
    05:00 +24°C° 0 mm 1 mps 757 mmHg 59%
    06:00 +24°C° 0 mm 1 mps 758 mmHg 59%
    07:00 +24°C° 0 mm 2 mps 758 mmHg 58%
    08:00 +26°C° 0 mm 2 mps 758 mmHg 52%
    09:00 +28°C° 0 mm 2 mps 759 mmHg 46%
    10:00 +29°C° 0 mm 2 mps 759 mmHg 40%
    11:00 +30°C° 0 mm 3 mps 759 mmHg 40%
    12:00 +30°C° 0 mm 4 mps 758 mmHg 40%
    13:00 +32°C° 0 mm 4 mps 758 mmHg 40%
    14:00 +30°C° 0 mm 4 mps 757 mmHg 42%
    15:00 +29°C° 0 mm 4 mps 757 mmHg 44%
    16:00 +28°C° 0 mm 4 mps 757 mmHg 46%
    17:00 +27°C° 0 mm 3 mps 757 mmHg 52%
    18:00 +26°C° 0 mm 2 mps 758 mmHg 57%
    19:00 +25°C° 0 mm 1 mps 758 mmHg 62%
    20:00 +25°C° 0 mm 1 mps 759 mmHg 63%
    21:00 +25°C° 0 mm 1 mps 759 mmHg 64%
    22:00 +25°C° 0 mm 1 mps 760 mmHg 65%
    23:00 +24°C° 0 mm 1 mps 759 mmHg 64%

    30 May, Thursday

    Time Temperature Precipitation Wind Pressure Humidity
    00:00 +24°C° 0 mm 1 mps 759 mmHg 64%
    01:00 +24°C° 0 mm 1 mps 759 mmHg 64%
    02:00 +24°C° 0 mm 1 mps 758 mmHg 64%
    03:00 +23°C° 0 mm 1 mps 758 mmHg 64%
    04:00 +23°C° 0 mm 1 mps 758 mmHg 65%
    05:00 +23°C° 0 mm 1 mps 758 mmHg 64%
    06:00 +23°C° 0 mm 1 mps 758 mmHg 64%
    07:00 +23°C° 0 mm 1 mps 759 mmHg 64%
    08:00 +24°C° 0 mm 1 mps 759 mmHg 57%
    09:00 +26°C° 0 mm 1 mps 759 mmHg 50%
    10:00 +28°C° 0 mm 1 mps 760 mmHg 42%
    11:00 +29°C° 0 mm 2 mps 759 mmHg 39%
    12:00 +30°C° 0 mm 3 mps 759 mmHg 36%
    13:00 +32°C° 0 mm 4 mps 758 mmHg 32%
    14:00 +32°C° 0 mm 5 mps 758 mmHg 35%
    15:00 +30°C° 0 mm 5 mps 757 mmHg 37%
    16:00 +29°C° 0 mm 5 mps 757 mmHg 39%
    17:00 +28°C° 0 mm 5 mps 757 mmHg 44%
    18:00 +26°C° 0 mm 4 mps 758 mmHg 50%
    19:00 +25°C° 0 mm 4 mps 758 mmHg 55%
    20:00 +25°C° 0 mm 4 mps 759 mmHg 56%
    21:00 +24°C° 0 mm 3 mps 759 mmHg 56%
    22:00 +24°C° 0 mm 3 mps 759 mmHg 57%
    23:00 +24°C° 0 mm 2 mps 759 mmHg 57%

    31 May, Friday

    Time Temperature Precipitation Wind Pressure Humidity
    00:00 +23°C° 0 mm 2 mps 759 mmHg 57%
    01:00 +23°C° 0 mm 2 mps 758 mmHg 56%
    02:00 +23°C° 0 mm 2 mps 758 mmHg 57%
    03:00 +21°C° 0 mm 2 mps 758 mmHg 58%
    04:00 +21°C° 0 mm 3 mps 757 mmHg 59%
    05:00 +21°C° 0 mm 2 mps 758 mmHg 60%
    06:00 +20°C° 0 mm 2 mps 758 mmHg 61%
    07:00 +20°C° 0 mm 2 mps 758 mmHg 61%
    08:00 +23°C° 0 mm 2 mps 759 mmHg 54%
    09:00 +25°C° 0 mm 2 mps 759 mmHg 46%
    10:00 +27°C° 0 mm 2 mps 759 mmHg 39%
    11:00 +28°C° 0 mm 3 mps 758 mmHg 37%
    12:00 +29°C° 0 mm 4 mps 758 mmHg 35%
    13:00 +30°C° 0 mm 5 mps 757 mmHg 34%
    14:00 +29°C° 0 mm 5 mps 757 mmHg 36%
    15:00 +29°C° 0 mm 4 mps 756 mmHg 39%
    16:00 +28°C° 0 mm 4 mps 756 mmHg 42%
    17:00 +27°C° 0 mm 4 mps 756 mmHg 46%
    18:00 +26°C° 0 mm 3 mps 757 mmHg 51%
    19:00 +25°C° 0 mm 2 mps 758 mmHg 56%
    20:00 +24°C° 0 mm 2 mps 758 mmHg 58%
    21:00 +24°C° 0 mm 2 mps 758 mmHg 59%
    22:00 +24°C° 0 mm 2 mps 759 mmHg 61%
    23:00 +23°C° 0 mm 2 mps 758 mmHg 60%

    1 June, Saturday

    Time Temperature Precipitation Wind Pressure Humidity
    00:00 +23°C° 0 mm 2 mps 758 mmHg 59%
    01:00 +23°C° 0 mm 2 mps 758 mmHg 58%
    02:00 +21°C° 0 mm 2 mps 757 mmHg 59%
    03:00 +21°C° 0 mm 2 mps 757 mmHg 60%
    04:00 +21°C° 0 mm 2 mps 757 mmHg 61%
    05:00 +21°C° 0 mm 2 mps 757 mmHg 59%
    06:00 +21°C° 0 mm 2 mps 757 mmHg 57%
    07:00 +21°C° 0 mm 2 mps 758 mmHg 55%
    08:00 +25°C° 0 mm 2 mps 758 mmHg 48%
    09:00 +27°C° 0 mm 2 mps 758 mmHg 40%
    10:00 +29°C° 0 mm 1 mps 758 mmHg 33%
    11:00 +30°C° 0 mm 2 mps 757 mmHg 33%
    12:00 +31°C° 0 mm 3 mps 756 mmHg 33%
    13:00 +32°C° 0 mm 4 mps 756 mmHg 33%
    14:00 +32°C° 0 mm 4 mps 755 mmHg 35%
    15:00 +30°C° 0 mm 4 mps 755 mmHg 37%
    16:00 +29°C° 0 mm 4 mps 755 mmHg 40%
    17:00 +28°C° 0 mm 4 mps 756 mmHg 43%
    18:00 +27°C° 0 mm 3 mps 756 mmHg 47%
    19:00 +26°C° 0 mm 3 mps 757 mmHg 50%
    20:00 +26°C° 0 mm 2 mps 757 mmHg 50%
    21:00 +26°C° 0 mm 2 mps 758 mmHg 49%
    22:00 +25°C° 0 mm 2 mps 758 mmHg 49%
    23:00 +25°C° 0 mm 2 mps 758 mmHg 47%
    Show more